Flag Weather past 2 weeks in Bălți, Moldova

Now
34 °F

Partly sunny.


Feels Like: 29 °F
Forecast: 31 / 37 °F
Wind: 6 mph from North

Location: Baltsi-Leadoveni - The North of Moldova

Current Time: Nov 22, 2014 at 4:24:37 PM

Latest Report: Nov 22, 2014 at 4:00 PM


Visibility: N/A

Pressure: 30.30 "Hg

Humidity: 75%

Dew point: 27 °F

Location of BălțiLocation

Historic Weather in Bălți — Graph

°F

Bălți temperature yesterday

Maximum temperature yesterday: 37 °F (at 12:00 AM)
Minimum temperature yesterday: 34 °F (at 12:30 PM)
Average temperature yesterday: 35 °F

Past Weeks' High & Low Weather Summary

 TemperatureHumidityPressure
High63 °F (Nov 9, 1:00 PM)100% (Nov 8, 1:00 AM)30.30 "Hg (Nov 8, 1:00 AM)
Low32 °F (Nov 15, 6:00 AM)48% (Nov 9, 3:30 PM)30.01 "Hg (Nov 20, 1:00 AM)
Average42 °F88%30.13 "Hg
* Reported Nov 7 3:00 PM — Nov 22 3:00 PM, Bălți, Weather by CustomWeather, © 2014

Note: Actual official high and low records may vary slightly from our data, if they occured in-between our weather recording intervals... More about our weather records

Advertising

Bălți weather history for previous 24 hours

 ConditionsComfort  
Time TempWeatherWind HumidityBarometerVisibility
3:00 PM
Nov 22
34 °FPartly sunny.6 mph75%30.30 "HgN/A
2:00 PM34 °FScattered clouds.6 mph75%30.27 "HgN/A
1:00 PM34 °FScattered clouds.6 mph70%30.30 "HgN/A
12:00 PM34 °FLight rain. Partly sunny.5 mph75%30.30 "HgN/A
11:00 AM34 °FPartly sunny.7 mph70%30.30 "HgN/A
10:30 AM32 °FLight rain. Partly sunny.6 mph80%30.30 "HgN/A
10:00 AM34 °FLight rain. Scattered clouds.6 mph75%30.30 "HgN/A
9:00 AM32 °FPassing clouds.5 mph80%30.27 "HgN/A
8:00 AM32 °FChilly.6 mph80%30.27 "HgN/A
7:00 AM32 °FChilly.5 mph80%30.27 "HgN/A
6:00 AM32 °FChilly.6 mph87%30.24 "HgN/A
5:00 AM34 °FChilly.7 mph81%30.24 "HgN/A
4:00 AM34 °FChilly.6 mph81%30.24 "HgN/A
3:00 AM34 °FChilly.7 mph81%30.24 "HgN/A
1:00 AM34 °FChilly.7 mph75%30.24 "HgN/A
12:00 AM34 °FChilly.7 mph75%30.24 "HgN/A
11:00 PM
Nov 21
34 °FChilly.8 mph81%30.24 "HgN/A
10:00 PM34 °FChilly.9 mph75%30.24 "HgN/A
9:00 PM34 °FChilly.9 mph81%30.24 "HgN/A
8:30 PM34 °FChilly.9 mph87%30.24 "HgN/A
8:00 PM34 °FChilly.9 mph81%30.21 "HgN/A
7:00 PM34 °FChilly.9 mph87%30.21 "HgN/A
6:00 PM34 °FChilly.8 mph81%30.21 "HgN/A
5:00 PM34 °FChilly.9 mph81%30.18 "HgN/A
4:30 PM34 °FChilly.9 mph87%30.18 "HgN/A
4:00 PM34 °FOvercast.10 mph87%30.18 "HgN/A
Weather by CustomWeather, © 2014

See weather overviewHow to use our weather pages